GW3251 Weather Reports


Display with metric or nautical units.
time (UTC)temp
F
wind
direction
speed
MPH
gust
MPH
rain 1hr
in
rain 24hr
in
rain mn
in
humidity
%
barometer
mb
20260906183105 97 0 1.0 8.0 0.00 0.00 0.00 53 1013.4
20260906182537 95 0 0.0 8.0 0.00 0.00 0.00 57 1013.2
20260906182040 95 0 0.0 8.0 0.00 0.00 0.00 55 1013.4
20260906181603 95 0 0.0 5.0 0.00 0.00 0.00 53 1013.5
20260906181037 97 0 0.0 0.0 0.00 0.00 0.00 54 1013.6
20260906180537 97 0 0.0 5.0 0.00 0.00 0.00 54 1013.7
20260906180059 98 0 0.0 5.0 0.00 0.00 0.00 52 1014.0
20260906175541 96 0 0.0 5.0 0.00 0.00 0.00 55 1014.0
20260906175036 97 0 0.0 5.0 0.00 0.00 0.00 54 1014.1
20260906174602 95 0 0.0 0.0 0.00 0.00 0.00 57 1014.2
20260906174038 94 0 0.0 0.0 0.00 0.00 0.00 57 1014.1
20260906173537 94 0 0.0 0.0 0.00 0.00 0.00 59 1014.0
20260906173107 92 0 0.0 0.0 0.00 0.00 0.00 58 1014.1
20260906172538 92 0 0.0 0.0 0.00 0.00 0.00 62 1014.2
20260906172040 90 0 0.0 1.0 0.00 0.00 0.00 63 1014.4
20260906171602 90 0 0.0 1.0 0.00 0.00 0.00 63 1014.5
20260906171037 91 0 0.0 0.0 0.00 0.00 0.00 63 1014.5
20260906170537 93 0 0.0 6.0 0.00 0.00 0.00 61 1014.5
20260906165538 93 0 0.0 0.0 0.00 0.00 0.00 60 1014.5
20260906165037 92 0 0.0 1.0 0.00 0.00 0.00 61 1014.6
20260906164620 92 0 0.0 8.0 0.00 0.00 0.00 60 1014.5
20260906164037 94 0 0.0 8.0 0.00 0.00 0.00 59 1014.6
20260906163539 94 0 0.0 7.0 0.00 0.00 0.00 58 1014.4
20260906163100 92 198 0.0 0.0 0.00 0.00 0.00 60 1014.5
20260906162537 93 0 0.0 1.0 0.00 0.00 0.00 60 1014.6
20260906162037 93 0 0.0 1.0 0.00 0.00 0.00 61 1014.6
20260906161600 93 0 0.0 0.0 0.00 0.00 0.00 62 1014.7
20260906161037 93 0 0.0 0.0 0.00 0.00 0.00 60 1014.6
20260906160537 93 0 0.0 0.0 0.00 0.00 0.00 61 1014.5
20260906160053 93 0 0.0 0.0 0.00 0.00 0.00 63 1014.5
20260906155538 93 0 0.0 0.0 0.00 0.00 0.00 65 1014.5
20260906155037 91 0 0.0 0.0 0.00 0.00 0.00 67 1014.6
20260906154601 90 0 0.0 0.0 0.00 0.00 0.00 71 1014.6
20260906154038 89 0 0.0 0.0 0.00 0.00 0.00 73 1014.5
20260906153537 89 0 0.0 0.0 0.00 0.00 0.00 71 1014.6
20260906153102 89 0 0.0 0.0 0.00 0.00 0.00 71 1014.5
20260906152537 88 0 0.0 0.0 0.00 0.00 0.00 73 1014.5
20260906152038 89 0 0.0 0.0 0.00 0.00 0.00 71 1014.6
20260906151605 89 0 0.0 0.0 0.00 0.00 0.00 70 1014.4
20260906151037 88 0 0.0 0.0 0.00 0.00 0.00 71 1014.4
20260906150538 88 0 0.0 0.0 0.00 0.00 0.00 74 1014.4
20260906145538 87 0 0.0 0.0 0.00 0.00 0.00 76 1014.4
20260906145042 86 0 0.0 0.0 0.00 0.00 0.00 79 1014.4
20260906144629 86 0 0.0 0.0 0.00 0.00 0.00 80 1014.5
20260906144037 85 0 0.0 0.0 0.00 0.00 0.00 81 1014.5
20260906143538 85 0 0.0 0.0 0.00 0.00 0.00 81 1014.5
20260906143115 86 0 0.0 0.0 0.00 0.00 0.00 82 1014.5
20260906142538 86 0 0.0 0.0 0.00 0.00 0.00 83 1014.5
20260906142037 85 0 0.0 0.0 0.00 0.00 0.00 84 1014.5
20260906141600 84 0 0.0 0.0 0.00 0.00 0.00 86 1014.5
20260906141038 84 0 0.0 0.0 0.00 0.00 0.00 87 1014.3
20260906140538 83 0 0.0 0.0 0.00 0.00 0.00 88 1014.3
20260906140057 82 0 0.0 0.0 0.00 0.00 0.00 90 1014.2
20260906135541 81 0 0.0 0.0 0.00 0.00 0.00 90 1014.3
20260906135037 81 0 0.0 0.0 0.00 0.00 0.00 91 1014.3
20260906134558 80 0 0.0 0.0 0.00 0.00 0.00 92 1014.3
20260906134038 80 0 0.0 0.0 0.00 0.00 0.00 93 1014.2
20260906133538 79 0 0.0 0.0 0.00 0.00 0.00 93 1014.3
20260906133107 79 0 0.0 0.0 0.00 0.00 0.00 94 1014.3
20260906132538 78 0 0.0 0.0 0.00 0.00 0.00 94 1014.3
20260906132041 78 0 0.0 0.0 0.00 0.00 0.00 94 1014.1
20260906131600 78 0 0.0 0.0 0.00 0.00 0.00 94 1014.0
20260906131037 78 0 0.0 0.0 0.00 0.00 0.00 94 1014.0
20260906130540 77 0 0.0 0.0 0.00 0.00 0.00 94 1014.0
20260906130100 77 0 0.0 0.0 0.00 0.00 0.00 94 1013.9
20260906125539 77 0 0.0 0.0 0.00 0.00 0.00 94 1013.8
20260906125036 77 0 0.0 0.0 0.00 0.00 0.00 94 1014.0
20260906124555 77 0 0.0 0.0 0.00 0.00 0.00 94 1013.9
20260906124040 77 0 0.0 0.0 0.00 0.00 0.00 94 1013.9
20260906123537 76 0 0.0 0.0 0.00 0.00 0.00 94 1013.8
20260906123110 76 0 0.0 0.0 0.00 0.00 0.00 94 1013.9
20260906122538 76 0 0.0 0.0 0.00 0.00 0.00 94 1013.7
20260906122038 76 0 0.0 0.0 0.00 0.00 0.00 94 1013.6
20260906121600 76 0 0.0 0.0 0.00 0.00 0.00 94 1013.5
20260906121037 76 0 0.0 0.0 0.00 0.00 0.00 94 1013.4
20260906120538 76 0 0.0 0.0 0.00 0.00 0.00 94 1013.3
20260906120101 76 0 0.0 0.0 0.00 0.00 0.00 94 1013.0
20260906115538 76 0 0.0 0.0 0.00 0.00 0.00 94 1013.2
20260906115037 76 0 0.0 0.0 0.00 0.00 0.00 94 1013.0
20260906114558 76 0 0.0 0.0 0.00 0.00 0.00 93 1013.1
20260906114038 76 0 0.0 0.0 0.00 0.00 0.00 94 1013.0
20260906113538 76 0 0.0 0.0 0.00 0.00 0.00 94 1013.0
20260906113058 76 0 0.0 0.0 0.00 0.00 0.00 94 1013.0
20260906112537 76 0 0.0 0.0 0.00 0.00 0.00 93 1012.9
20260906112040 76 0 0.0 0.0 0.00 0.00 0.00 93 1012.9
20260906111557 76 0 0.0 0.0 0.00 0.00 0.00 93 1012.8
20260906111037 76 0 0.0 0.0 0.00 0.00 0.00 93 1012.9
20260906110537 76 0 0.0 0.0 0.00 0.00 0.00 93 1012.8
20260906110052 76 0 0.0 0.0 0.00 0.00 0.00 93 1012.9
20260906105537 76 0 0.0 0.0 0.00 0.00 0.00 93 1012.7
20260906105037 76 0 0.0 0.0 0.00 0.00 0.00 93 1012.5
20260906104600 76 0 0.0 0.0 0.00 0.00 0.00 93 1012.7
20260906104038 76 0 0.0 0.0 0.00 0.00 0.00 93 1012.6
20260906103538 76 0 0.0 0.0 0.00 0.00 0.00 93 1012.4
20260906103102 76 0 0.0 0.0 0.00 0.00 0.00 93 1012.5
20260906102538 76 0 0.0 0.0 0.00 0.00 0.00 93 1012.4
20260906102037 76 0 0.0 0.0 0.00 0.00 0.00 93 1012.4
20260906101601 76 0 0.0 0.0 0.00 0.00 0.00 93 1012.3
20260906101037 76 0 0.0 0.0 0.00 0.00 0.00 93 1012.4
20260906100538 76 0 0.0 0.0 0.00 0.00 0.00 93 1012.3
20260906100054 76 0 0.0 0.0 0.00 0.00 0.00 93 1012.2
20260906095537 76 0 0.0 0.0 0.00 0.00 0.00 93 1012.1
20260906095038 76 0 0.0 0.0 0.00 0.00 0.00 92 1012.2
20260906094559 76 0 0.0 0.0 0.00 0.00 0.00 92 1012.2
20260906094038 76 0 0.0 0.0 0.00 0.00 0.00 92 1012.2
20260906093538 76 0 0.0 0.0 0.00 0.00 0.00 92 1012.2
20260906093115 76 0 0.0 0.0 0.00 0.00 0.00 92 1012.3
20260906092538 76 0 0.0 0.0 0.00 0.00 0.00 92 1012.1
20260906092038 77 0 0.0 0.0 0.00 0.00 0.00 92 1012.2
20260906091558 77 0 0.0 0.0 0.00 0.00 0.00 92 1012.3
20260906091038 77 0 0.0 0.0 0.00 0.00 0.00 92 1012.1
20260906090538 77 0 0.0 0.0 0.00 0.00 0.00 92 1012.2
20260906090124 77 0 0.0 0.0 0.00 0.00 0.00 92 1012.1
20260906085538 77 0 0.0 0.0 0.00 0.00 0.00 92 1012.1
20260906085037 77 0 0.0 0.0 0.00 0.00 0.00 92 1012.0
20260906084557 77 0 0.0 0.0 0.00 0.00 0.00 92 1012.0
20260906084038 77 0 0.0 0.0 0.00 0.00 0.00 92 1012.1
20260906083537 77 0 0.0 0.0 0.00 0.00 0.00 91 1012.0
20260906083056 77 0 0.0 0.0 0.00 0.00 0.00 91 1011.9
20260906082538 77 0 0.0 0.0 0.00 0.00 0.00 91 1012.2
20260906082038 77 0 0.0 0.0 0.00 0.00 0.00 91 1012.1
20260906081600 77 0 0.0 0.0 0.00 0.00 0.00 91 1012.2
20260906081041 77 0 0.0 0.0 0.00 0.00 0.00 91 1012.3
20260906080538 77 0 0.0 0.0 0.00 0.00 0.00 91 1012.4
20260906080104 77 0 0.0 0.0 0.00 0.00 0.00 91 1012.4
20260906075538 77 0 0.0 0.0 0.00 0.00 0.00 91 1012.3
20260906075038 77 0 0.0 0.0 0.00 0.00 0.00 91 1012.2
20260906074602 77 0 0.0 0.0 0.00 0.00 0.00 91 1012.3
20260906074039 77 0 0.0 0.0 0.00 0.00 0.00 91 1012.3
20260906073537 77 0 0.0 0.0 0.00 0.00 0.00 91 1012.3
20260906073055 77 0 0.0 0.0 0.00 0.00 0.00 91 1012.4
20260906072538 77 0 0.0 0.0 0.00 0.00 0.00 91 1012.6
20260906072038 77 0 0.0 0.0 0.00 0.00 0.00 91 1012.6
20260906071609 77 0 0.0 0.0 0.00 0.00 0.00 91 1012.6
20260906071038 77 0 0.0 0.0 0.00 0.00 0.00 91 1012.7
20260906070539 77 0 0.0 0.0 0.00 0.00 0.00 91 1012.8
20260906070059 77 0 0.0 0.0 0.00 0.00 0.00 91 1012.6
20260906065541 77 0 0.0 0.0 0.00 0.00 0.00 91 1012.7
20260906065037 77 0 0.0 0.0 0.00 0.00 0.00 91 1012.9
20260906064552 77 0 0.0 0.0 0.00 0.00 0.00 91 1012.9
20260906064041 77 0 0.0 0.0 0.00 0.00 0.00 91 1012.9
20260906063539 77 0 0.0 0.0 0.00 0.00 0.00 91 1012.9
20260906063053 77 0 0.0 0.0 0.00 0.00 0.00 91 1012.8
20260906062538 77 0 0.0 0.0 0.00 0.00 0.00 91 1012.9
20260906062042 77 0 0.0 0.0 0.00 0.00 0.00 91 1012.9
20260906061558 77 0 0.0 0.0 0.00 0.00 0.00 91 1012.8
20260906061037 77 0 0.0 0.0 0.00 0.00 0.00 91 1012.8
20260906060537 77 0 0.0 0.0 0.00 0.00 0.00 91 1012.9
20260906055538 77 0 0.0 0.0 0.00 0.00 0.00 90 1013.1
20260906055039 77 0 0.0 0.0 0.00 0.00 0.00 90 1012.9
20260906054600 77 0 0.0 0.0 0.00 0.00 0.00 90 1012.8
20260906054038 77 0 0.0 0.0 0.00 0.00 0.00 90 1013.0
20260906053538 77 0 0.0 0.0 0.00 0.00 0.00 91 1012.9
20260906053058 77 0 0.0 0.0 0.00 0.00 0.00 91 1012.9
20260906052538 77 0 0.0 0.0 0.00 0.00 0.00 91 1012.9
20260906052039 77 0 0.0 0.0 0.00 0.00 0.00 91 1013.1
20260906051557 77 0 0.0 0.0 0.00 0.00 0.00 91 1013.2
20260906051038 77 0 0.0 0.0 0.00 0.00 0.00 91 1013.1
20260906050542 77 0 0.0 0.0 0.00 0.00 0.00 90 1013.1
20260906050123 77 0 0.0 0.0 0.00 0.00 0.00 90 1013.0
20260906045537 77 0 0.0 0.0 0.00 0.00 0.00 90 1013.1
20260906045038 77 0 0.0 0.0 0.00 0.00 0.00 90 1013.1
20260906044604 77 0 0.0 0.0 0.00 0.00 0.00 90 1013.1
20260906044038 77 0 0.0 0.0 0.00 0.00 0.00 90 1013.3
20260906043538 77 0 0.0 0.0 0.00 0.00 0.00 90 1013.2
20260906043107 77 0 0.0 0.0 0.00 0.00 0.00 90 1013.2
20260906042539 77 0 0.0 0.0 0.00 0.00 0.00 90 1013.3
20260906042039 77 0 0.0 0.0 0.00 0.00 0.00 90 1013.2
20260906041557 77 0 0.0 0.0 0.00 0.00 0.00 90 1013.1
20260906041037 77 0 0.0 0.0 0.00 0.00 0.00 89 1013.0
20260906040538 77 0 0.0 0.0 0.00 0.00 0.00 89 1013.1
20260906040104 78 0 0.0 0.0 0.00 0.00 0.00 89 1013.0
20260906035539 78 0 0.0 0.0 0.00 0.00 0.00 89 1012.9
20260906035039 78 0 0.0 0.0 0.00 0.00 0.00 89 1013.0
20260906034557 78 0 0.0 0.0 0.00 0.00 0.00 89 1012.9
20260906034041 78 0 0.0 0.0 0.00 0.00 0.00 89 1012.9
20260906033538 78 0 0.0 0.0 0.00 0.00 0.00 89 1012.9
20260906033057 78 0 0.0 0.0 0.00 0.00 0.00 89 1012.9
20260906032539 78 0 0.0 0.0 0.00 0.00 0.00 88 1012.9
20260906032038 78 0 0.0 0.0 0.00 0.00 0.00 88 1012.7
20260906031557 78 0 0.0 0.0 0.00 0.00 0.00 88 1012.9
20260906031038 78 0 0.0 0.0 0.00 0.00 0.00 88 1013.0
20260906030542 78 0 0.0 0.0 0.00 0.00 0.00 88 1013.0
20260906030132 78 0 0.0 0.0 0.00 0.00 0.00 88 1012.9
20260906025538 78 0 0.0 0.0 0.00 0.00 0.00 88 1013.0
20260906025040 78 0 0.0 0.0 0.00 0.00 0.00 88 1013.0
20260906024555 78 0 0.0 0.0 0.00 0.00 0.00 88 1012.9
20260906024038 78 0 0.0 0.0 0.00 0.00 0.00 87 1012.9
20260906023541 78 0 0.0 0.0 0.00 0.00 0.00 87 1012.9
20260906023117 78 0 0.0 0.0 0.00 0.00 0.00 87 1012.9
20260906022538 78 0 0.0 0.0 0.00 0.00 0.00 87 1012.8
20260906022038 78 0 0.0 0.0 0.00 0.00 0.00 86 1012.7
20260906021611 78 0 0.0 0.0 0.00 0.00 0.00 86 1012.6
20260906021038 79 0 0.0 0.0 0.00 0.00 0.00 86 1012.5
20260906020538 79 0 0.0 0.0 0.00 0.00 0.00 85 1012.3
20260906015537 79 0 0.0 0.0 0.00 0.00 0.00 85 1012.1
20260906015038 79 0 0.0 0.0 0.00 0.00 0.00 84 1012.1
20260906014613 79 0 0.0 0.0 0.00 0.00 0.00 84 1012.0
20260906014037 79 0 0.0 0.0 0.00 0.00 0.00 84 1012.0
20260906013537 79 0 0.0 0.0 0.00 0.00 0.00 83 1011.9
20260906013059 79 0 0.0 0.0 0.00 0.00 0.00 83 1011.8
20260906012540 80 0 0.0 0.0 0.00 0.00 0.00 83 1011.7
20260906012038 80 0 0.0 0.0 0.00 0.00 0.00 82 1011.6
20260906011607 80 0 0.0 0.0 0.00 0.00 0.00 81 1011.7
20260906011038 80 0 0.0 0.0 0.00 0.00 0.00 81 1011.8
20260906010537 81 0 0.0 9.0 0.00 0.00 0.00 80 1011.8
20260906010101 81 0 0.0 9.0 0.00 0.00 0.00 80 1011.8
20260906005538 81 127 0.0 9.0 0.00 0.00 0.00 79 1011.9
20260906005038 81 0 0.0 9.0 0.00 0.00 0.00 78 1011.9
20260906004558 82 140 0.0 9.0 0.00 0.00 0.00 77 1012.1
20260906004038 82 0 0.0 0.0 0.00 0.00 0.00 77 1012.1
20260906003538 82 0 0.0 7.0 0.00 0.00 0.00 76 1012.2
20260906003108 82 0 0.0 8.0 0.00 0.00 0.00 75 1012.1
20260906002537 83 0 0.0 8.0 0.00 0.00 0.00 75 1012.3
20260906002040 83 0 0.0 8.0 0.00 0.00 0.00 74 1012.4
20260906001602 83 0 0.0 7.0 0.00 0.00 0.00 73 1012.4
20260906001038 83 0 0.0 8.0 0.00 0.00 0.00 73 1012.4
20260906000540 84 0 0.0 8.0 0.00 0.00 0.00 73 1012.2
20260906000059 84 0 0.0 7.0 0.00 0.00 0.00 72 1012.2
20260905235537 84 0 0.0 7.0 0.00 0.00 0.00 71 1012.1
20260905235038 84 0 0.0 4.0 0.00 0.00 0.00 71 1012.1
20260905234611 84 0 0.0 0.0 0.00 0.00 0.00 70 1012.2
20260905234039 84 0 0.0 0.0 0.00 0.00 0.00 69 1012.1
20260905233538 85 0 0.0 0.0 0.00 0.00 0.00 69 1012.1
20260905233056 85 0 0.0 4.0 0.00 0.00 0.00 68 1012.1
20260905232538 85 0 0.0 4.0 0.00 0.00 0.00 68 1012.1
20260905232038 85 0 0.0 4.0 0.00 0.00 0.00 68 1011.9
20260905231600 85 0 0.0 3.0 0.00 0.00 0.00 68 1011.8
20260905231038 86 0 0.0 3.0 0.00 0.00 0.00 68 1011.8
20260905230537 86 0 0.0 9.0 0.00 0.00 0.00 67 1011.8
20260905230103 87 0 0.0 9.0 0.00 0.00 0.00 66 1011.8
20260905225537 88 0 2.0 9.0 0.00 0.00 0.00 65 1011.6
20260905225038 89 0 0.0 7.0 0.00 0.00 0.00 63 1011.7
20260905224559 91 0 0.0 7.0 0.00 0.00 0.00 60 1011.6
20260905224038 92 0 0.0 0.0 0.00 0.00 0.00 57 1011.5
20260905223537 92 0 0.0 0.0 0.00 0.00 0.00 56 1011.5
20260905223056 93 0 0.0 0.0 0.00 0.00 0.00 56 1011.5
20260905222537 93 0 0.0 0.0 0.00 0.00 0.00 56 1011.6
20260905222038 94 0 0.0 0.0 0.00 0.00 0.00 55 1011.6
20260905221558 94 0 0.0 0.0 0.00 0.00 0.00 55 1011.6
20260905221038 94 0 0.0 0.0 0.00 0.00 0.00 55 1011.6
20260905220540 94 0 0.0 0.0 0.00 0.00 0.00 56 1011.6
20260905220059 94 0 0.0 0.0 0.00 0.00 0.00 54 1011.5
20260905215537 94 0 0.0 0.0 0.00 0.00 0.00 56 1011.4
20260905215038 94 0 0.0 1.0 0.00 0.00 0.00 56 1011.4
20260905214612 95 0 0.0 1.0 0.00 0.00 0.00 56 1011.4
20260905214039 94 0 0.0 0.0 0.00 0.00 0.00 58 1011.4
20260905213538 94 0 0.0 0.0 0.00 0.00 0.00 56 1011.6
20260905213111 94 0 0.0 0.0 0.00 0.00 0.00 58 1011.8
20260905212538 94 0 0.0 0.0 0.00 0.00 0.00 57 1011.9
20260905212037 95 0 0.0 0.0 0.00 0.00 0.00 57 1011.9
20260905211603 95 0 0.0 0.0 0.00 0.00 0.00 57 1011.8
20260905211038 94 0 0.0 0.0 0.00 0.00 0.00 57 1011.7
20260905210537 95 0 0.0 0.0 0.00 0.00 0.00 57 1011.8
20260905210058 95 0 0.0 0.0 0.00 0.00 0.00 57 1011.7
20260905205538 94 0 0.0 0.0 0.00 0.00 0.00 57 1011.9
20260905205039 94 0 0.0 0.0 0.00 0.00 0.00 57 1011.9
20260905204551 92 0 0.0 0.0 0.00 0.00 0.00 61 1012.0
20260905204038 91 0 0.0 0.0 0.00 0.00 0.00 63 1011.9
20260905203540 91 0 0.0 0.0 0.00 0.00 0.00 66 1012.0
20260905203102 90 0 0.0 0.0 0.00 0.00 0.00 68 1012.0
20260905202537 89 0 0.0 0.0 0.00 0.00 0.00 71 1012.2
20260905202041 89 0 0.0 0.0 0.00 0.00 0.00 71 1012.1
20260905201606 88 0 0.0 0.0 0.00 0.00 0.00 72 1012.2
20260905201038 89 0 0.0 0.0 0.00 0.00 0.00 72 1012.2
20260905200537 88 0 0.0 0.0 0.00 0.00 0.00 74 1012.3
20260905200101 87 0 0.0 1.0 0.00 0.00 0.00 75 1012.5
20260905195538 87 0 0.0 1.0 0.00 0.00 0.00 75 1012.5
20260905195037 88 0 0.0 0.0 0.00 0.00 0.00 74 1012.6
20260905194558 88 0 0.0 0.0 0.00 0.00 0.00 72 1012.5
20260905194038 88 0 0.0 3.0 0.00 0.00 0.00 71 1012.5
20260905193537 88 0 0.0 3.0 0.00 0.00 0.00 73 1012.6
20260905193103 90 0 0.0 0.0 0.00 0.00 0.00 70 1012.6
20260905192538 92 0 0.0 0.0 0.00 0.00 0.00 65 1012.8
20260905192038 92 0 0.0 0.0 0.00 0.00 0.00 59 1012.6
20260905191612 93 0 0.0 1.0 0.00 0.00 0.00 57 1012.6
20260905191041 94 0 0.0 1.0 0.00 0.00 0.00 55 1012.8
20260905190538 94 0 0.0 0.0 0.00 0.00 0.00 55 1012.8
20260905190103 95 0 0.0 8.0 0.00 0.00 0.00 54 1013.0
20260905185537 96 0 0.0 8.0 0.00 0.00 0.00 53 1013.0
20260905185038 99 0 0.0 9.0 0.00 0.00 0.00 50 1013.0
20260905184616 99 0 0.0 9.0 0.00 0.00 0.00 50 1013.2
20260905184038 96 0 0.0 3.0 0.00 0.00 0.00 53 1013.3
20260905183540 97 0 0.0 3.0 0.00 0.00 0.00 50 1013.4